Time,TemperatureF,DewpointF,PressureIn,WindDirection,WindDirectionDegrees,WindSpeedMPH,WindSpeedGustMPH,Humidity,HourlyPrecipIn,Conditions,Clouds,dailyrainin,SoftwareType,DateUTC
2013-02-08 00:10:00,61.7,51.0,30.01,NNW,339,20.0,-999.0,69,-99.99,,,0.00,weatherlink.com 1.10,2013-02-08 06:10:00,
2013-02-08 00:25:00,61.2,51.0,30.02,NW,321,12.0,-999.0,69,-99.99,,,0.00,weatherlink.com 1.10,2013-02-08 06:25:00,
2013-02-08 00:41:00,60.3,50.0,30.02,NW,325,14.0,-999.0,70,-99.99,,,0.00,weatherlink.com 1.10,2013-02-08 06:41:00,
2013-02-08 00:55:00,59.4,50.0,30.02,NNW,345,11.0,-999.0,70,-99.99,,,0.00,weatherlink.com 1.10,2013-02-08 06:55:00,
2013-02-08 01:11:00,58.7,49.0,30.02,North,350,13.0,-999.0,71,-99.99,,,0.00,weatherlink.com 1.10,2013-02-08 07:11:00,
2013-02-08 01:26:00,58.0,49.0,30.04,North,360,15.0,-999.0,72,-99.99,,,0.00,weatherlink.com 1.10,2013-02-08 07:26:00,
2013-02-08 01:41:00,57.3,49.0,30.04,North,360,15.0,-999.0,74,-99.99,,,0.00,weatherlink.com 1.10,2013-02-08 07:41:00,
2013-02-08 01:56:00,57.1,49.0,30.04,North,360,13.0,-999.0,74,-99.99,,,0.00,weatherlink.com 1.10,2013-02-08 07:56:00,
2013-02-08 02:11:00,56.9,49.0,30.04,North,5,16.0,-999.0,74,-99.99,,,0.00,weatherlink.com 1.10,2013-02-08 08:11:00,
2013-02-08 02:26:00,56.3,48.0,30.04,NNW,331,7.0,-999.0,75,-99.99,,,0.00,weatherlink.com 1.10,2013-02-08 08:26:00,
2013-02-08 02:41:00,55.6,48.0,30.04,NNW,342,11.0,-999.0,76,-99.99,,,0.00,weatherlink.com 1.10,2013-02-08 08:41:00,
2013-02-08 02:56:00,55.4,48.0,30.04,NNW,344,10.0,-999.0,77,-99.99,,,0.00,weatherlink.com 1.10,2013-02-08 08:56:00,
2013-02-08 03:11:00,54.9,48.0,30.04,NNW,348,14.0,-999.0,78,-99.99,,,0.00,weatherlink.com 1.10,2013-02-08 09:11:00,
2013-02-08 03:26:00,54.5,48.0,30.05,NNW,340,10.0,-999.0,78,-99.99,,,0.00,weatherlink.com 1.10,2013-02-08 09:26:00,
2013-02-08 03:41:00,54.0,47.0,30.04,NNW,340,18.0,-999.0,78,-99.99,,,0.00,weatherlink.com 1.10,2013-02-08 09:41:00,
2013-02-08 03:56:00,53.7,47.0,30.06,NNW,346,14.0,-999.0,79,-99.99,,,0.00,weatherlink.com 1.10,2013-02-08 09:56:00,
2013-02-08 04:11:00,53.2,47.0,30.06,NNW,345,9.0,-999.0,79,-99.99,,,0.00,weatherlink.com 1.10,2013-02-08 10:11:00,
2013-02-08 04:26:00,52.6,47.0,30.06,NNW,348,10.0,-999.0,80,-99.99,,,0.00,weatherlink.com 1.10,2013-02-08 10:26:00,
2013-02-08 04:41:00,52.1,46.0,30.06,NNW,343,12.0,-999.0,81,-99.99,,,0.00,weatherlink.com 1.10,2013-02-08 10:41:00,
2013-02-08 04:56:00,51.9,46.0,30.06,NNW,348,15.0,-999.0,81,-99.99,,,0.00,weatherlink.com 1.10,2013-02-08 10:56:00,
2013-02-08 05:11:00,51.5,46.0,30.07,NNW,331,9.0,-999.0,81,-99.99,,,0.00,weatherlink.com 1.10,2013-02-08 11:11:00,
2013-02-08 05:26:00,51.2,46.0,30.08,North,360,10.0,-999.0,81,-99.99,,,0.00,weatherlink.com 1.10,2013-02-08 11:26:00,
2013-02-08 05:41:00,50.7,45.0,30.09,NNW,342,7.0,-999.0,82,-99.99,,,0.00,weatherlink.com 1.10,2013-02-08 11:41:00,
2013-02-08 05:56:00,50.4,45.0,30.09,North,355,9.0,-999.0,82,-99.99,,,0.00,weatherlink.com 1.10,2013-02-08 11:56:00,
2013-02-08 06:11:00,50.2,45.0,30.10,NNW,346,13.0,-999.0,81,-99.99,,,0.00,weatherlink.com 1.10,2013-02-08 12:11:00,
2013-02-08 06:26:00,49.8,44.0,30.11,North,355,11.0,-999.0,81,-99.99,,,0.00,weatherlink.com 1.10,2013-02-08 12:26:00,
2013-02-08 06:41:00,49.5,44.0,30.12,NNW,341,10.0,-999.0,81,-99.99,,,0.00,weatherlink.com 1.10,2013-02-08 12:41:00,
2013-02-08 06:57:00,49.2,44.0,30.12,North,350,11.0,-999.0,81,-99.99,,,0.00,weatherlink.com 1.10,2013-02-08 12:57:00,
2013-02-08 07:12:00,48.8,43.0,30.12,North,351,11.0,-999.0,81,-99.99,,,0.00,weatherlink.com 1.10,2013-02-08 13:12:00,
2013-02-08 07:27:00,48.3,43.0,30.12,NNW,346,9.0,-999.0,82,-99.99,,,0.00,weatherlink.com 1.10,2013-02-08 13:27:00,
2013-02-08 07:42:00,48.3,43.0,30.14,NNW,336,5.0,-999.0,82,-99.99,,,0.00,weatherlink.com 1.10,2013-02-08 13:42:00,
2013-02-08 07:59:00,48.8,43.0,30.15,NNW,327,3.0,-999.0,81,-99.99,,,0.00,weatherlink.com 1.10,2013-02-08 13:59:00,
2013-02-08 08:12:00,49.4,44.0,30.15,NNW,329,4.0,-999.0,80,-99.99,,,0.00,weatherlink.com 1.10,2013-02-08 14:12:00,
2013-02-08 08:27:00,50.1,44.0,30.16,NNW,338,9.0,-999.0,78,-99.99,,,0.00,weatherlink.com 1.10,2013-02-08 14:27:00,
2013-02-08 08:42:00,50.8,44.0,30.16,NNW,348,12.0,-999.0,77,-99.99,,,0.00,weatherlink.com 1.10,2013-02-08 14:42:00,
2013-02-08 08:57:00,51.5,43.0,30.16,North,355,10.0,-999.0,74,-99.99,,,0.00,weatherlink.com 1.10,2013-02-08 14:57:00,
2013-02-08 09:12:00,52.3,43.0,30.17,North,11,14.0,-999.0,71,-99.99,,,0.00,weatherlink.com 1.10,2013-02-08 15:12:00,
2013-02-08 09:27:00,53.3,43.0,30.17,NW,324,10.0,-999.0,69,-99.99,,,0.00,weatherlink.com 1.10,2013-02-08 15:27:00,
2013-02-08 09:45:00,54.1,42.0,30.18,NNE,17,13.0,-999.0,65,-99.99,,,0.00,weatherlink.com 1.10,2013-02-08 15:45:00,
2013-02-08 09:57:00,55.0,43.0,30.18,NNE,15,9.0,-999.0,65,-99.99,,,0.00,weatherlink.com 1.10,2013-02-08 15:57:00,
2013-02-08 10:12:00,55.6,43.0,30.18,North,5,11.0,-999.0,63,-99.99,,,0.00,weatherlink.com 1.10,2013-02-08 16:12:00,
2013-02-08 10:27:00,57.0,43.0,30.18,NNE,17,11.0,-999.0,60,-99.99,,,0.00,weatherlink.com 1.10,2013-02-08 16:27:00,
2013-02-08 10:42:00,57.6,43.0,30.18,NNE,13,13.0,-999.0,59,-99.99,,,0.00,weatherlink.com 1.10,2013-02-08 16:42:00,
2013-02-08 10:57:00,58.5,44.0,30.18,NNE,13,11.0,-999.0,59,-99.99,,,0.00,weatherlink.com 1.10,2013-02-08 16:57:00,
2013-02-08 11:12:00,59.4,43.0,30.17,North,5,11.0,-999.0,54,-99.99,,,0.00,weatherlink.com 1.10,2013-02-08 17:12:00,
2013-02-08 11:27:00,60.2,42.0,30.16,NNW,342,17.0,-999.0,52,-99.99,,,0.00,weatherlink.com 1.10,2013-02-08 17:27:00,
2013-02-08 11:42:00,61.4,42.0,30.16,NNE,13,13.0,-999.0,49,-99.99,,,0.00,weatherlink.com 1.10,2013-02-08 17:42:00,
2013-02-08 11:57:00,62.4,41.0,30.15,NNE,13,14.0,-999.0,46,-99.99,,,0.00,weatherlink.com 1.10,2013-02-08 17:57:00,
2013-02-08 12:12:00,63.3,41.0,30.15,NNE,32,12.0,-999.0,45,-99.99,,,0.00,weatherlink.com 1.10,2013-02-08 18:12:00,
2013-02-08 12:28:00,64.0,41.0,30.14,NNE,16,11.0,-999.0,43,-99.99,,,0.00,weatherlink.com 1.10,2013-02-08 18:28:00,
2013-02-08 12:43:00,64.3,41.0,30.13,North,355,10.0,-999.0,43,-99.99,,,0.00,weatherlink.com 1.10,2013-02-08 18:43:00,
2013-02-08 12:58:00,64.9,42.0,30.13,NE,37,14.0,-999.0,43,-99.99,,,0.00,weatherlink.com 1.10,2013-02-08 18:58:00,
2013-02-08 13:12:00,65.7,41.0,30.12,NNE,15,9.0,-999.0,41,-99.99,,,0.00,weatherlink.com 1.10,2013-02-08 19:12:00,
2013-02-08 13:27:00,65.5,42.0,30.11,NNW,342,4.0,-999.0,42,-99.99,,,0.00,weatherlink.com 1.10,2013-02-08 19:27:00,
2013-02-08 13:43:00,66.4,41.0,30.10,North,350,11.0,-999.0,39,-99.99,,,0.00,weatherlink.com 1.10,2013-02-08 19:43:00,
2013-02-08 13:58:00,66.7,40.0,30.10,ENE,65,8.0,-999.0,38,-99.99,,,0.00,weatherlink.com 1.10,2013-02-08 19:58:00,
2013-02-08 14:12:00,67.4,42.0,30.09,NNE,13,8.0,-999.0,40,-99.99,,,0.00,weatherlink.com 1.10,2013-02-08 20:12:00,
2013-02-08 14:27:00,67.3,39.0,30.09,NE,34,9.0,-999.0,36,-99.99,,,0.00,weatherlink.com 1.10,2013-02-08 20:27:00,
2013-02-08 14:43:00,67.6,40.0,30.08,ENE,60,9.0,-999.0,36,-99.99,,,0.00,weatherlink.com 1.10,2013-02-08 20:43:00,
2013-02-08 14:57:00,67.7,40.0,30.07,NNE,27,10.0,-999.0,36,-99.99,,,0.00,weatherlink.com 1.10,2013-02-08 20:57:00,
2013-02-08 15:12:00,68.0,39.0,30.07,North,360,10.0,-999.0,35,-99.99,,,0.00,weatherlink.com 1.10,2013-02-08 21:12:00,
2013-02-08 15:27:00,68.1,39.0,30.06,North,5,12.0,-999.0,35,-99.99,,,0.00,weatherlink.com 1.10,2013-02-08 21:27:00,
2013-02-08 15:43:00,68.1,39.0,30.06,NE,41,10.0,-999.0,35,-99.99,,,0.00,weatherlink.com 1.10,2013-02-08 21:43:00,
2013-02-08 15:58:00,68.4,40.0,30.06,ENE,59,5.0,-999.0,36,-99.99,,,0.00,weatherlink.com 1.10,2013-02-08 21:58:00,
2013-02-08 16:13:00,68.5,39.0,30.06,East,82,5.0,-999.0,34,-99.99,,,0.00,weatherlink.com 1.10,2013-02-08 22:13:00,
2013-02-08 16:28:00,68.3,37.0,30.06,ENE,71,10.0,-999.0,32,-99.99,,,0.00,weatherlink.com 1.10,2013-02-08 22:28:00,
2013-02-08 16:43:00,68.0,37.0,30.07,ENE,66,3.0,-999.0,32,-99.99,,,0.00,weatherlink.com 1.10,2013-02-08 22:43:00,
2013-02-08 16:58:00,67.8,37.0,30.07,ENE,57,7.0,-999.0,32,-99.99,,,0.00,weatherlink.com 1.10,2013-02-08 22:58:00,
2013-02-08 17:28:00,65.9,38.0,30.07,ENE,74,4.0,-999.0,36,-99.99,,,0.00,weatherlink.com 1.10,2013-02-08 23:28:00,
2013-02-08 17:43:00,64.9,39.0,30.07,ENE,75,3.0,-999.0,39,-99.99,,,0.00,weatherlink.com 1.10,2013-02-08 23:43:00,
2013-02-08 17:58:00,63.6,39.0,30.06,ENE,75,3.0,-999.0,41,-99.99,,,0.00,weatherlink.com 1.10,2013-02-08 23:58:00,
2013-02-08 18:13:00,62.4,39.0,30.06,East,98,4.0,-999.0,43,-99.99,,,0.00,weatherlink.com 1.10,2013-02-09 00:13:00,
2013-02-08 18:28:00,61.4,39.0,30.06,East,98,4.0,-999.0,44,-99.99,,,0.00,weatherlink.com 1.10,2013-02-09 00:28:00,
2013-02-08 18:43:00,60.8,39.0,30.06,East,98,3.0,-999.0,45,-99.99,,,0.00,weatherlink.com 1.10,2013-02-09 00:43:00,
2013-02-08 18:58:00,60.2,39.0,30.07,East,97,3.0,-999.0,46,-99.99,,,0.00,weatherlink.com 1.10,2013-02-09 00:58:00,
2013-02-08 19:13:00,60.1,39.0,30.07,East,96,3.0,-999.0,46,-99.99,,,0.00,weatherlink.com 1.10,2013-02-09 01:13:00,
2013-02-08 19:28:00,59.5,40.0,30.07,East,84,4.0,-999.0,48,-99.99,,,0.00,weatherlink.com 1.10,2013-02-09 01:28:00,
2013-02-08 19:43:00,59.0,40.0,30.07,East,84,4.0,-999.0,49,-99.99,,,0.00,weatherlink.com 1.10,2013-02-09 01:43:00,
2013-02-08 19:58:00,58.9,40.0,30.07,East,83,4.0,-999.0,50,-99.99,,,0.00,weatherlink.com 1.10,2013-02-09 01:58:00,
2013-02-08 20:13:00,58.9,41.0,30.07,East,80,5.0,-999.0,52,-99.99,,,0.00,weatherlink.com 1.10,2013-02-09 02:13:00,
2013-02-08 20:28:00,58.7,41.0,30.06,ENE,77,5.0,-999.0,53,-99.99,,,0.00,weatherlink.com 1.10,2013-02-09 02:28:00,
2013-02-08 20:43:00,58.5,42.0,30.06,ENE,73,7.0,-999.0,54,-99.99,,,0.00,weatherlink.com 1.10,2013-02-09 02:43:00,
2013-02-08 20:58:00,59.0,42.0,30.07,East,82,3.0,-999.0,54,-99.99,,,0.00,weatherlink.com 1.10,2013-02-09 02:58:00,
2013-02-08 21:13:00,58.7,43.0,30.07,East,83,3.0,-999.0,56,-99.99,,,0.00,weatherlink.com 1.10,2013-02-09 03:13:00,
2013-02-08 21:28:00,58.1,43.0,30.07,East,84,3.0,-999.0,58,-99.99,,,0.00,weatherlink.com 1.10,2013-02-09 03:28:00,
2013-02-08 21:43:00,57.8,43.0,30.07,East,85,4.0,-999.0,59,-99.99,,,0.00,weatherlink.com 1.10,2013-02-09 03:43:00,
2013-02-08 21:58:00,57.2,43.0,30.07,East,85,2.0,-999.0,60,-99.99,,,0.00,weatherlink.com 1.10,2013-02-09 03:58:00,
2013-02-08 22:13:00,57.0,43.0,30.08,East,85,4.0,-999.0,61,-99.99,,,0.00,weatherlink.com 1.10,2013-02-09 04:13:00,
2013-02-08 22:28:00,56.9,44.0,30.07,East,85,2.0,-999.0,62,-99.99,,,0.00,weatherlink.com 1.10,2013-02-09 04:28:00,
2013-02-08 22:43:00,56.4,44.0,30.07,East,85,3.0,-999.0,63,-99.99,,,0.00,weatherlink.com 1.10,2013-02-09 04:43:00,
2013-02-08 22:58:00,56.1,45.0,30.07,East,80,4.0,-999.0,66,-99.99,,,0.00,weatherlink.com 1.10,2013-02-09 04:58:00,
2013-02-08 23:13:00,56.3,46.0,30.06,East,89,5.0,-999.0,68,-99.99,,,0.00,weatherlink.com 1.10,2013-02-09 05:13:00,
2013-02-08 23:28:00,55.6,47.0,30.07,East,98,5.0,-999.0,73,-99.99,,,0.00,weatherlink.com 1.10,2013-02-09 05:28:00,
2013-02-08 23:43:00,55.1,48.0,30.07,ESE,102,9.0,-999.0,76,-99.99,,,0.00,weatherlink.com 1.10,2013-02-09 05:43:00,
2013-02-08 23:58:00,54.7,48.0,30.07,East,92,10.0,-999.0,79,-99.99,,,0.00,weatherlink.com 1.10,2013-02-09 05:58:00,